Location: Miles
(41.4492°N, 81.6087°W)
Time: 18:02:13
(UTC+00:00)

Tiros 1 despin weight - Pass Details

Date: 13 September 2024
Orbit: 573 x 615 km, 48.2° (Epoch: 04 October)

Event Time Altitude Azimuth Distance (km) Brightness Sun altitude
Rises 13:14:56 0° 295° (WNW) 2,894 ? 23.2°
Reaches altitude 10° 13:17:21 10° 302° (WNW) 1,986 ? 23.6°
Maximum altitude 13:21:43 43° 14° (NNE) 866 ? 24.4°
Drops below altitude 10° 13:26:03 10° 87° (E) 1,969 ? 25.2°
Sets 13:28:26 0° 94° (E) 2,866 ? 25.6°
